EW8780 Weather Reports


Display with metric or nautical units.
time (UTC)temp
F
wind
direction
speed
MPH
gust
MPH
rain 1hr
in
rain 24hr
in
rain mn
in
humidity
%
barometer
mb
20260506043011 54 202 0.0 0.0 0.00 0.00 0.00 91 1014.7
20260506041508 54 202 0.0 0.0 0.00 0.00 0.00 90 1014.5
20260506040009 54 202 0.0 0.0 0.00 0.00 0.00 90 1014.3
20260506034506 54 202 0.0 0.0 0.00 0.00 0.00 90 1014.1
20260506033005 54 202 0.0 1.0 0.00 0.00 0.00 89 1013.8
20260506031504 55 202 0.0 1.0 0.00 0.00 0.00 89 1013.7
20260506030002 55 202 0.0 2.0 0.00 0.00 0.00 88 1013.5
20260506024615 55 202 0.0 1.0 0.00 0.00 0.00 88 1013.3
20260506023105 55 202 0.0 2.0 0.00 0.00 0.00 87 1013.4
20260506021601 56 209 0.0 2.0 0.00 0.00 0.00 86 1013.3
20260506020057 57 209 0.0 1.0 0.00 0.00 0.00 86 1013.2
20260506014557 57 209 0.0 1.0 0.00 0.00 0.00 85 1013.2
20260506013102 57 209 0.0 2.0 0.00 0.00 0.00 85 1013.0
20260506011621 57 209 1.0 3.0 0.00 0.00 0.00 83 1012.9
20260506010106 58 216 0.0 4.0 0.00 0.00 0.00 84 1012.8
20260506004555 58 217 1.0 4.0 0.00 0.00 0.00 83 1012.9
20260506003057 58 190 0.0 2.0 0.00 0.00 0.00 84 1012.8
20260506001556 58 207 3.0 5.0 0.00 0.00 0.00 82 1012.8
20260506000058 58 152 0.0 4.0 0.00 0.00 0.00 82 1013.0
20260505234552 58 178 2.0 5.0 0.00 0.00 0.00 82 1012.9
20260505233052 59 180 1.0 5.0 0.00 0.00 0.00 82 1013.0
20260505231554 60 120 1.0 5.0 0.00 0.00 0.00 81 1013.2
20260505230052 61 150 1.0 6.0 0.00 0.00 0.00 80 1013.2
20260505224549 61 147 0.0 4.0 0.00 0.00 0.00 80 1013.0
20260505223048 62 201 2.0 7.0 0.00 0.00 0.00 78 1013.0
20260505221600 63 182 1.0 4.0 0.00 0.00 0.00 78 1013.1
20260505220057 63 222 2.0 5.0 0.00 0.00 0.00 76 1013.2
20260505214552 62 159 3.0 10.0 0.00 0.00 0.00 79 1013.1
20260505213047 63 180 5.0 10.0 0.00 0.00 0.00 77 1012.9
20260505211543 63 202 5.0 10.0 0.00 0.00 0.00 77 1013.0
20260505210047 62 188 5.0 8.0 0.00 0.00 0.00 78 1012.9
20260505204550 61 125 3.0 9.0 0.00 0.00 0.00 78 1013.0
20260505203038 61 196 3.0 8.0 0.00 0.00 0.00 78 1013.0
20260505201539 61 194 3.0 8.0 0.00 0.00 0.00 79 1013.0
20260505200036 61 244 3.0 8.0 0.00 0.00 0.00 79 1013.1
20260505194534 60 185 4.0 8.0 0.00 0.00 0.00 79 1013.0
20260505193040 61 185 3.0 8.0 0.00 0.00 0.00 80 1013.1
20260505191532 60 209 3.0 7.0 0.00 0.00 0.00 80 1013.1
20260505190028 59 187 4.0 8.0 0.00 0.00 0.00 81 1013.1
20260505184528 58 184 1.0 7.0 0.00 0.00 0.00 81 1012.9
20260505183035 59 196 2.0 6.0 0.00 0.00 0.00 81 1013.0
20260505181529 59 204 1.0 7.0 0.00 0.00 0.00 79 1012.9
20260505180026 59 213 1.0 4.0 0.00 0.00 0.00 82 1012.9
20260505174522 58 184 3.0 5.0 0.00 0.01 0.00 81 1012.9
20260505173021 58 180 1.0 4.0 0.00 0.01 0.00 82 1012.8
20260505171519 58 222 0.0 2.0 0.00 0.01 0.00 83 1012.7
20260505170018 57 217 1.0 3.0 0.00 0.01 0.00 83 1012.6
20260505164517 57 228 1.0 6.0 0.00 0.01 0.00 84 1012.7
20260505163016 57 222 1.0 4.0 0.00 0.01 0.00 82 1012.6
20260505161514 57 213 0.0 1.0 0.00 0.01 0.00 85 1012.6
20260505153007 56 200 0.0 3.0 0.00 0.01 0.00 90 1012.6
20260505151502 55 199 0.0 0.0 0.00 0.01 0.00 94 1012.4
20260505124550 52 199 0.0 0.0 0.00 0.01 0.00 96 1012.1
20260505123049 52 199 0.0 0.0 0.00 0.01 0.00 96 1012.1
20260505121542 53 199 0.0 0.0 0.00 0.01 0.00 96 1011.9
20260505120049 53 199 0.0 0.0 0.00 0.01 0.00 96 1011.9
20260505114542 53 199 0.0 0.0 0.00 0.01 0.00 96 1011.8
20260505113047 53 199 0.0 0.0 0.00 0.01 0.00 96 1011.7
20260505111539 53 199 0.0 0.0 0.00 0.01 0.00 96 1011.7
20260505101535 53 199 0.0 0.0 0.00 0.01 0.00 96 1011.7
20260505100035 53 199 0.0 0.0 0.00 0.01 0.00 95 1011.7
20260505094534 53 199 0.0 0.0 0.00 0.01 0.00 95 1011.8
20260505093032 53 199 0.0 0.0 0.00 0.01 0.00 95 1011.9
20260505091530 53 199 0.0 0.0 0.00 0.01 0.00 95 1011.9
20260505090028 53 199 0.0 0.0 0.00 0.01 0.00 95 1012.1
20260505084542 53 199 0.0 0.0 0.00 0.01 0.00 95 1012.3
20260505083026 53 199 0.0 0.0 0.00 0.01 0.00 95 1012.3
20260505081524 53 199 0.0 0.0 0.00 0.01 0.00 95 1012.3
20260505080023 53 199 0.0 0.0 0.00 0.01 0.00 95 1012.4
20260505074523 53 199 0.0 0.0 0.00 0.02 0.00 95 1012.5
20260505073022 53 199 0.0 0.0 0.00 0.02 0.00 95 1012.5
20260505071520 53 199 0.0 0.0 0.00 0.02 0.00 95 1012.4
20260505070018 53 199 0.0 0.0 0.00 0.02 0.00 95 1012.4
20260505064519 53 199 0.0 0.0 0.00 0.03 0.02 95 1012.4
20260505063020 53 199 0.0 1.0 0.00 0.03 0.02 95 1012.3
20260505061520 53 199 0.0 0.0 0.00 0.03 0.02 94 1012.4
20260505060016 53 199 0.0 0.0 0.00 0.03 0.02 94 1012.4
20260505054515 53 199 0.0 0.0 0.00 0.03 0.02 94 1012.4
20260505053019 53 199 0.0 0.0 0.00 0.03 0.02 94 1012.5
20260505051518 53 199 0.0 0.0 0.00 0.03 0.02 94 1012.4